Terminal Aerodrome Forecast
Issued by NWS Louisville, KY

Home | Current Version | Previous Version | Text Only | Print | Product List | Glossary On
Versions: 1 2 3 4 5 6 7 8 9 10 11 12 13 14 15 16 17 18 19 20 21 22 23
000
FTUS43 KLMK 172300
TAFLEX
TAF
KLEX 172320Z 1800/1824 04003KT P6SM SCT090
     FM181000 04003KT 5SM BR BKN080
     FM181300 05006KT P6SM SCT040=

USA.gov is the U.S. government's official web portal to all federal, state and local government web resources and services.